Location: *
(50.3440°N, 18.6237°E)
Time: 14:49:47
(UTC+00:00)

Cosmos 1943 Rocket - Visible Passes

Search period start: 20 April 2021 00:00
Search period end: 30 April 2021 00:00
Orbit: 811 x 844 km, 71.0° (Epoch: 19 April)

Date Brightness Start Highest point End Pass type
(mag) Time Alt. Az. Time Alt. Az. Time Alt. Az.
20 Apr 2.9 01:47:44 14° S 01:52:26 49° ESE 01:57:51 10° NE visible
21 Apr 3.1 01:29:12 17° S 01:33:15 44° ESE 01:38:34 10° NE visible
22 Apr 3.2 01:10:36 19° SSE 01:14:04 39° ESE 01:19:16 10° NE visible
22 Apr 2.8 02:52:24 10° WSW 02:57:47 44° NW 03:03:11 10° NNE visible
23 Apr 3.4 00:51:58 21° SSE 00:54:54 35° ESE 00:59:58 10° NE visible
23 Apr 2.7 02:33:30 12° SW 02:38:31 48° NW 02:43:59 10° NNE visible
24 Apr 3.5 00:33:18 22° SE 00:35:44 31° ESE 00:40:38 10° NE visible
24 Apr 2.5 02:14:49 16° SW 02:19:14 53° NW 02:24:47 10° NNE visible
25 Apr 3.6 00:14:34 22° SE 00:16:35 28° ESE 00:21:17 10° NE visible
25 Apr 2.4 01:56:06 20° SW 01:59:59 59° NW 02:05:35 10° NNE visible
25 Apr 3.7 23:55:49 22° SE 23:57:26 25° ESE 00:01:56 10° NE visible
26 Apr 2.3 01:37:20 24° SW 01:40:44 65° WNW 01:46:22 10° NNE visible
26 Apr 3.8 23:37:02 21° ESE 23:38:18 22° ESE 23:42:32 10° NE visible
27 Apr 2.2 01:18:32 29° SW 01:21:29 72° WNW 01:27:09 10° NNE visible
27 Apr 3.9 23:18:12 19° ESE 23:19:09 20° E 23:23:06 10° NE visible
28 Apr 2.2 00:59:43 34° SW 01:02:15 80° WNW 01:07:55 10° NNE visible
28 Apr 3.9 02:42:42 10° W 02:46:55 21° NW 02:51:09 10° N visible
28 Apr 4.0 22:59:21 17° ESE 23:00:02 18° E 23:03:38 10° ENE visible
29 Apr 2.1 00:40:51 40° SSW 00:43:01 88° WNW 00:48:42 10° NNE visible
29 Apr 3.8 02:23:12 10° W 02:27:36 23° NW 02:31:59 10° NNE visible
29 Apr 4.1 22:40:28 15° ESE 22:40:55 15° E 22:44:06 10° ENE visible
